Simultaneous Nadir Overpasses (SNOs) Predictions

Prediction of SNOs between FY3D and AQUA Satellite Orbit:

Table of predicted SNOs for the next 14.0 days since TLE Epoch: 4/26/2025
Index Date (FY3D) Time (FY3D) Lat,Lon (FY3D) SZA (FY3D ) Date (AQUA) Time (AQUA) Lat,Lon (AQUA) SZA (AQUA ) Distance(km) Time Diff (sec)
1 04/27/2025 00:38:11 -79.46, -21.96 114.22 04/27/2025 00:38:10 -79.46, -21.98 114.22 0.32 1
2 04/29/2025 10:09:01 -79.61,-165.95 114.77 04/29/2025 10:09:31 -79.61,-165.81 114.79 2.94 30
3 04/29/2025 10:59:37 79.31, 4.03 64.82 04/29/2025 10:58:42 79.32, 3.95 64.84 1.84 55
4 05/01/2025 19:39:45 -79.58, 51.69 115.55 05/01/2025 19:40:46 -79.59, 51.59 115.55 2.18 61
5 05/01/2025 20:30:25 79.41,-139.44 64.22 05/01/2025 20:30:00 79.42,-139.47 64.22 0.55 25
6 05/04/2025 06:01:12 79.49, 77.29 63.61 05/04/2025 06:01:16 79.49, 77.24 63.61 1.01 4
7 05/06/2025 15:31:57 79.50, -65.49 62.95 05/06/2025 15:32:29 79.51, -65.64 62.95 3.19 32
8 05/06/2025 16:22:37 -79.37, 102.98 117.24 05/06/2025 16:21:43 -79.37, 103.04 117.24 1.32 54
9 05/09/2025 01:02:45 79.62, 150.84 62.45 05/09/2025 01:03:43 79.62, 150.81 62.44 0.70 58



Historial Predications of SNOs between FY3D and AQUA
